Home   Weather   Knittelfeld   Past weeks

Flag for Austria Past Weather in Knittelfeld, Styria, Austria — Yesterday and Last 2 Weeks

Now
37 °F

Light rain. Partly sunny.


Feels Like: 37 °F
Forecast: 32 / 52 °F
Wind: 2 mph from North

Location: Zeltweg

Current Time: Apr 28, 2017 at 12:31:11 pm

Latest Report: Apr 28, 2017 at 11:50 am


Visibility: 4 mi

Pressure: 29.71 "Hg (27.44 "Hg at 641m altitude)

Humidity: 87%

Dew Point: 34 °F

Location of KnittelfeldLocation

Past Weather in Knittelfeld — Graph

°F

Knittelfeld Temperature Yesterday

Maximum temperature yesterday: 50 °F (at 1:50 am)
Minimum temperature yesterday: 41 °F (at 10:50 pm)
Average temperature yesterday: 46 °F

High & Low Weather Summary for the Past Weeks

 TemperatureHumidityPressure
High64 °F (Apr 25, 1:20 pm)100% (Apr 24, 7:20 am)30.39 "Hg (Apr 24, 7:20 am)
Low23 °F (Apr 21, 4:50 am)29% (Apr 21, 1:20 pm)29.68 "Hg (Apr 26, 1:50 am)
Average46 °F58%29.97 "Hg
* Reported Apr 13 11:20 am — Apr 28 11:20 am, Knittelfeld, Weather by CustomWeather, © 2017

Note: Actual official high and low records may vary slightly from our data, if they occured in-between our weather recording intervals... More about our weather records

Advertising

Knittelfeld Weather History for the Previous 24 Hours

Scroll right to see more
 ConditionsComfort  
Time TempWeatherWind HumidityBarometerVisibility
11:20 am
Fri, Apr 28
37 °FLight rain. Partly sunny.2 mph87%29.71 "Hg4 mi
10:50 am36 °FLight rain. Broken clouds.2 mph93%29.71 "Hg4 mi
10:20 am36 °FLight rain. Partly sunny.3 mph93%29.71 "Hg4 mi
9:20 am36 °FLight rain. Broken clouds.1 mph93%29.71 "Hg4 mi
8:50 am36 °FLight rain. Broken clouds.2 mph93%29.71 "Hg4 mi
8:20 am36 °FLight rain. Partly sunny.2 mph93%29.71 "Hg4 mi
7:50 am34 °FBroken clouds.1 mph100%29.71 "Hg4 mi
7:20 am34 °FLight rain. Partly sunny.2 mph100%29.71 "Hg3 mi
6:50 am34 °FLight rain. Scattered clouds.2 mph93%29.71 "Hg3 mi
5:50 am34 °FLight rain. Broken clouds.2 mph93%29.71 "Hg5 mi
4:50 am34 °FSnow. Passing clouds.3 mph93%29.71 "Hg4 mi
1:50 am39 °FRain. Partly cloudy.3 mph93%29.74 "Hg5 mi
10:50 pm
Thu, Apr 27
41 °FLight rain. Passing clouds.10 mph93%29.80 "Hg6 mi
9:50 pm43 °FRain. Passing clouds.12 mph87%29.80 "Hg6 mi
8:50 pm43 °FRain. Passing clouds.12 mph93%29.80 "Hg6 mi
7:50 pm45 °FRain. Partly sunny.13 mph87%29.80 "Hg6 mi
6:50 pm46 °FRain. Partly sunny.13 mph87%29.77 "Hg6 mi
5:50 pm46 °FLight rain. Broken clouds.12 mph93%29.80 "Hg9 mi
4:50 pm48 °FLight rain. Broken clouds.8 mph87%29.83 "Hg9 mi
4:20 pm46 °FLight rain. Broken clouds.8 mph93%29.80 "Hg9 mi
3:50 pm48 °FLight rain. Broken clouds.8 mph87%29.80 "Hg9 mi
3:20 pm46 °FLight rain. Broken clouds.7 mph93%29.80 "Hg9 mi
2:50 pm46 °FLight rain. Broken clouds.10 mph93%29.80 "Hg5 mi
2:20 pm48 °FLight rain. Broken clouds.7 mph82%29.80 "Hg16 mi
1:50 pm48 °FBroken clouds.8 mph82%29.80 "Hg16 mi
1:20 pm48 °FBroken clouds.5 mph82%29.83 "Hg16 mi
12:50 pm46 °FLight rain. Broken clouds.5 mph87%29.83 "Hg16 mi
12:20 pm46 °FLight rain. Broken clouds.3 mph87%29.83 "Hg9 mi
Weather by CustomWeather, © 2017

See weather overviewHow to use our weather pages